FW2103 Weather Reports


time (UTC)temp
C
wind
direction
speed
KPH
gust
KPH
rain 1hr
cm
rain 24hr
cm
rain mn
cm
humidity
%
barometer
mb
20260509002629 18 143 0.0 0.0 0.00 0.00 0.00 49 1010.0
20260509002126 18 142 0.0 0.0 0.00 0.00 0.00 49 1010.0
20260509001624 18 107 3.2 3.2 0.00 0.00 0.00 49 1009.9
20260509001119 18 145 0.0 0.0 0.00 0.00 0.00 49 1010.2
20260509000618 18 82 0.0 0.0 0.00 0.00 0.00 50 1010.0
20260509000114 18 92 0.0 0.0 0.00 0.00 0.00 49 1010.5
20260508235612 18 73 0.0 0.0 0.00 0.00 0.00 49 1010.4
20260508235108 18 109 0.0 0.0 0.00 0.00 0.00 49 1010.1
20260508234605 19 108 0.0 0.0 0.00 0.00 0.00 49 1010.3
20260508234101 19 88 0.0 0.0 0.00 0.00 0.00 47 1010.2
20260508233601 19 167 4.8 8.0 0.00 0.00 0.00 47 1010.1
20260508233058 19 147 4.8 4.8 0.00 0.00 0.00 46 1010.3
20260508232555 19 146 4.8 4.8 0.00 0.00 0.00 47 1010.2
20260508232052 20 152 1.6 3.2 0.00 0.00 0.00 46 1010.5
20260508231550 20 104 6.4 8.0 0.00 0.00 0.00 44 1010.5
20260508231046 20 148 4.8 4.8 0.00 0.00 0.00 44 1010.3
20260508230543 20 152 0.0 0.0 0.00 0.00 0.00 44 1010.2
20260508230040 20 128 0.0 0.0 0.00 0.00 0.00 46 1010.2
20260508225537 20 135 0.0 0.0 0.00 0.00 0.00 44 1010.2
20260508225033 20 163 1.6 3.2 0.00 0.00 0.00 43 1010.2
20260508224531 21 174 3.2 3.2 0.00 0.00 0.00 43 1009.9
20260508224029 21 130 0.0 0.0 0.00 0.00 0.00 42 1010.1
20260508223526 21 155 0.0 0.0 0.00 0.00 0.00 42 1010.3
20260508223023 21 64 0.0 0.0 0.00 0.00 0.00 43 1010.2
20260508222521 20 124 1.6 1.6 0.00 0.00 0.00 43 1010.1
20260508222017 20 166 3.2 3.2 0.00 0.00 0.00 43 1010.2
20260508221514 20 150 6.4 8.0 0.00 0.00 0.00 43 1010.1
20260508221010 20 170 3.2 3.2 0.00 0.00 0.00 43 1010.0
20260508220506 21 176 3.2 3.2 0.00 0.00 0.00 43 1010.1
20260508220002 21 200 3.2 4.8 0.00 0.00 0.00 42 1010.0
20260508215459 21 359 1.6 1.6 0.00 0.00 0.00 42 1009.9
20260508214956 21 178 0.0 0.0 0.00 0.00 0.00 44 1009.9
20260508214454 20 150 0.0 0.0 0.00 0.00 0.00 44 1010.1
20260508213950 20 145 0.0 0.0 0.00 0.00 0.00 45 1010.1
20260508213448 20 119 1.6 3.2 0.00 0.00 0.00 44 1010.2
20260508212942 21 158 8.0 11.3 0.00 0.00 0.00 41 1010.3
20260508212440 21 160 0.0 0.0 0.00 0.00 0.00 43 1010.4
20260508211935 21 179 1.6 3.2 0.00 0.00 0.00 41 1010.4
20260508211431 21 161 3.2 3.2 0.00 0.00 0.00 41 1010.4
20260508210929 22 352 3.2 8.0 0.00 0.00 0.00 40 1010.4
20260508210425 21 331 0.0 0.0 0.00 0.00 0.00 42 1010.4
20260508205921 21 182 4.8 8.0 0.00 0.00 0.00 41 1010.6
20260508205419 21 191 3.2 3.2 0.00 0.00 0.00 41 1010.3
20260508204915 22 162 6.4 9.7 0.00 0.00 0.00 41 1010.8
20260508204412 22 50 1.6 1.6 0.00 0.00 0.00 41 1010.7
20260508203908 21 309 4.8 4.8 0.00 0.00 0.00 42 1010.8
20260508203404 21 153 3.2 8.0 0.00 0.00 0.00 43 1010.8
20260508202900 21 141 8.0 9.7 0.00 0.00 0.00 42 1010.9
20260508202357 21 1 3.2 8.0 0.00 0.00 0.00 44 1011.2
20260508201855 22 196 6.4 8.0 0.00 0.00 0.00 42 1011.3
20260508201351 21 358 0.0 0.0 0.00 0.00 0.00 46 1011.2
20260508200847 21 171 3.2 3.2 0.00 0.00 0.00 40 1011.7
20260508200345 22 123 4.8 8.0 0.00 0.00 0.00 43 1011.6
20260508195840 22 124 3.2 4.8 0.00 0.00 0.00 41 1011.6
20260508195337 21 172 0.0 0.0 0.00 0.00 0.00 41 1011.6
20260508194833 21 165 4.8 8.0 0.00 0.00 0.00 41 1011.8
20260508194331 22 130 1.6 3.2 0.00 0.00 0.00 43 1011.9
20260508193827 21 136 6.4 8.0 0.00 0.00 0.00 43 1011.8
20260508193324 21 8 1.6 4.8 0.00 0.00 0.00 40 1011.7
20260508192820 21 302 1.6 4.8 0.00 0.00 0.00 41 1011.7
20260508192318 21 158 0.0 0.0 0.00 0.00 0.00 41 1011.7
20260508191815 21 32 0.0 0.0 0.00 0.00 0.00 42 1011.6
20260508191312 21 94 1.6 3.2 0.00 0.00 0.00 43 1011.6
20260508190809 21 338 0.0 1.6 0.00 0.00 0.00 43 1011.7
20260508190305 21 357 0.0 1.6 0.00 0.00 0.00 43 1011.7
20260508185801 21 159 0.0 0.0 0.00 0.00 0.00 43 1011.7
20260508185259 21 147 6.4 9.7 0.00 0.00 0.00 41 1011.9
20260508184756 21 161 0.0 0.0 0.00 0.00 0.00 42 1011.9
20260508184253 21 132 0.0 0.0 0.00 0.00 0.00 41 1012.3
20260508183750 22 256 3.2 3.2 0.00 0.00 0.00 40 1012.1
20260508183247 21 133 4.8 4.8 0.00 0.00 0.00 41 1012.3
20260508182743 21 190 6.4 8.0 0.00 0.00 0.00 40 1012.4
20260508182239 21 170 8.0 9.7 0.00 0.00 0.00 44 1012.4
20260508181735 21 146 0.0 0.0 0.00 0.00 0.00 38 1012.7
20260508181232 21 173 0.0 0.0 0.00 0.00 0.00 44 1012.7
20260508180729 21 190 4.8 8.0 0.00 0.00 0.00 39 1012.9
20260508180226 21 158 4.8 4.8 0.00 0.00 0.00 40 1012.8
20260508175722 21 85 1.6 3.2 0.00 0.00 0.00 42 1013.0
20260508175219 21 322 0.0 1.6 0.00 0.00 0.00 45 1012.9
20260508174717 20 124 0.0 0.0 0.00 0.00 0.00 42 1013.1
20260508174214 21 34 0.0 0.0 0.00 0.00 0.00 42 1013.3
20260508173710 20 12 1.6 1.6 0.00 0.00 0.00 41 1013.3
20260508173206 20 151 1.6 3.2 0.00 0.00 0.00 40 1013.5
20260508172704 20 157 0.0 0.0 0.00 0.00 0.00 45 1013.4
20260508172200 19 157 4.8 4.8 0.00 0.00 0.00 41 1013.9
20260508171657 20 144 12.9 16.1 0.00 0.00 0.00 44 1013.8
20260508171153 20 159 3.2 8.0 0.00 0.00 0.00 42 1013.8
20260508170650 21 110 0.0 1.6 0.00 0.00 0.00 43 1013.9
20260508170148 20 130 0.0 0.0 0.00 0.00 0.00 47 1014.0
20260508165645 20 205 0.0 0.0 0.00 0.00 0.00 46 1014.0
20260508165142 20 170 1.6 3.2 0.00 0.00 0.00 44 1014.5
20260508164638 20 95 1.6 1.6 0.00 0.00 0.00 49 1014.3
20260508164135 20 144 4.8 8.0 0.00 0.00 0.00 48 1014.2
20260508163633 20 2 4.8 9.7 0.00 0.00 0.00 47 1014.5
20260508163130 20 159 0.0 0.0 0.00 0.00 0.00 45 1014.7
20260508162626 19 119 8.0 11.3 0.00 0.00 0.00 52 1014.8
20260508162123 18 215 4.8 8.0 0.00 0.00 0.00 47 1014.6
20260508161620 19 121 0.0 0.0 0.00 0.00 0.00 47 1014.8
20260508161118 18 122 1.6 1.6 0.00 0.00 0.00 48 1014.8
20260508160616 18 213 1.6 4.8 0.00 0.00 0.00 49 1015.0
20260508160113 18 153 0.0 0.0 0.00 0.00 0.00 47 1015.2
20260508155610 19 163 1.6 3.2 0.00 0.00 0.00 48 1015.1
20260508155107 18 17 0.0 0.0 0.00 0.00 0.00 49 1015.4
20260508154603 18 132 8.0 11.3 0.00 0.00 0.00 49 1015.2
20260508154100 18 49 0.0 0.0 0.00 0.00 0.00 53 1015.1
20260508153557 18 334 0.0 0.0 0.00 0.00 0.00 52 1015.3
20260508153054 17 49 0.0 0.0 0.00 0.00 0.00 52 1015.4
20260508152551 17 133 6.4 9.7 0.00 0.00 0.00 50 1015.3
20260508152046 17 156 0.0 0.0 0.00 0.00 0.00 50 1015.5
20260508151542 17 168 0.0 0.0 0.00 0.00 0.00 53 1015.4
20260508151034 16 180 4.8 4.8 0.00 0.00 0.00 52 1015.5
20260508150532 16 139 3.2 4.8 0.00 0.00 0.00 53 1015.9
20260508150027 16 147 4.8 4.8 0.00 0.00 0.00 53 1015.8
20260508145524 16 28 1.6 1.6 0.00 0.00 0.00 54 1016.0
20260508145020 16 168 0.0 0.0 0.00 0.00 0.00 56 1016.0
20260508144518 16 0 3.2 3.2 0.00 0.00 0.00 56 1016.0
20260508144015 15 312 3.2 3.2 0.00 0.00 0.00 57 1015.9
20260508143513 15 321 4.8 8.0 0.00 0.00 0.00 59 1016.1
20260508143009 15 144 0.0 0.0 0.00 0.00 0.00 57 1016.0
20260508142506 15 150 4.8 4.8 0.00 0.00 0.00 61 1015.8
20260508142002 15 80 0.0 0.0 0.00 0.00 0.00 61 1016.0
20260508141459 14 119 0.0 0.0 0.00 0.00 0.00 60 1015.7
20260508140957 14 135 0.0 0.0 0.00 0.00 0.00 62 1015.9
20260508140454 13 163 1.6 3.2 0.00 0.00 0.00 61 1016.0
20260508135949 13 150 0.0 0.0 0.00 0.00 0.00 65 1016.1
20260508135446 13 56 0.0 0.0 0.00 0.00 0.00 63 1016.2
20260508134943 13 150 0.0 0.0 0.00 0.00 0.00 62 1016.0
20260508134439 12 5 1.6 3.2 0.00 0.00 0.00 64 1016.2
20260508133936 12 164 0.0 0.0 0.00 0.00 0.00 65 1016.1
20260508133433 12 142 0.0 0.0 0.00 0.00 0.00 68 1016.0
20260508132930 12 99 0.0 0.0 0.00 0.00 0.00 69 1015.9
20260508132428 11 202 0.0 0.0 0.00 0.00 0.00 65 1016.1
20260508131925 11 134 0.0 0.0 0.00 0.00 0.00 68 1015.9
20260508131420 11 100 0.0 0.0 0.00 0.00 0.00 68 1015.9
20260508130917 11 148 0.0 0.0 0.00 0.00 0.00 68 1016.0
20260508130414 10 137 0.0 0.0 0.00 0.00 0.00 68 1016.0
20260508125910 10 176 0.0 0.0 0.00 0.00 0.00 68 1016.0
20260508125406 10 158 0.0 0.0 0.00 0.00 0.00 68 1016.1
20260508124904 10 139 0.0 0.0 0.00 0.00 0.00 69 1016.2
20260508124401 10 144 0.0 0.0 0.00 0.00 0.00 71 1016.0
20260508123859 9 142 0.0 0.0 0.00 0.00 0.00 71 1016.0
20260508123357 8 127 0.0 0.0 0.00 0.00 0.00 73 1016.0
20260508122853 8 112 0.0 0.0 0.00 0.00 0.00 74 1015.9
20260508122350 8 132 0.0 0.0 0.00 0.00 0.00 74 1016.0
20260508121847 7 127 0.0 0.0 0.00 0.00 0.00 77 1015.8
20260508121346 7 129 0.0 0.0 0.00 0.00 0.00 77 1016.1
20260508120843 7 128 0.0 0.0 0.00 0.00 0.00 78 1015.8
20260508120341 7 119 0.0 0.0 0.00 0.00 0.00 78 1015.8
20260508115838 7 119 0.0 0.0 0.00 0.00 0.00 78 1015.7
20260508115335 7 125 0.0 0.0 0.00 0.00 0.00 78 1015.8
20260508114832 6 138 0.0 0.0 0.00 0.00 0.00 78 1015.5
20260508114329 6 133 0.0 0.0 0.00 0.00 0.00 79 1015.5
20260508113826 6 126 0.0 0.0 0.00 0.00 0.00 80 1015.5
20260508113324 6 122 0.0 0.0 0.00 0.00 0.00 81 1015.3
20260508112820 6 124 0.0 0.0 0.00 0.00 0.00 81 1015.4
20260508112317 5 121 0.0 0.0 0.00 0.00 0.00 81 1015.4
20260508111814 5 111 0.0 0.0 0.00 0.00 0.00 82 1015.3
20260508111311 5 114 0.0 0.0 0.00 0.00 0.00 82 1015.2
20260508110808 5 108 0.0 0.0 0.00 0.00 0.00 82 1015.4
20260508110306 5 95 0.0 0.0 0.00 0.00 0.00 83 1015.2
20260508105805 5 93 0.0 0.0 0.00 0.00 0.00 84 1015.0
20260508105305 5 93 0.0 0.0 0.00 0.00 0.00 84 1015.1
20260508104759 5 93 0.0 0.0 0.00 0.00 0.00 84 1015.3
20260508104256 5 93 0.0 0.0 0.00 0.00 0.00 84 1015.1
20260508103753 5 93 0.0 0.0 0.00 0.00 0.00 84 1015.1
20260508103250 5 93 0.0 0.0 0.00 0.00 0.00 84 1015.1
20260508102747 5 95 0.0 0.0 0.00 0.00 0.00 83 1015.2
20260508102246 5 91 0.0 0.0 0.00 0.00 0.00 84 1015.2
20260508101743 5 91 0.0 0.0 0.00 0.00 0.00 83 1015.1
20260508101240 5 91 0.0 0.0 0.00 0.00 0.00 84 1015.0
20260508100738 5 91 0.0 0.0 0.00 0.00 0.00 84 1015.1
20260508100235 5 91 0.0 0.0 0.00 0.00 0.00 83 1015.3
20260508095731 5 91 0.0 0.0 0.00 0.00 0.00 83 1015.2
20260508095229 5 89 0.0 0.0 0.00 0.00 0.00 83 1015.2
20260508094725 5 89 0.0 0.0 0.00 0.00 0.00 83 1015.2
20260508094222 5 89 0.0 0.0 0.00 0.00 0.00 83 1015.1
20260508093720 5 85 0.0 0.0 0.00 0.00 0.00 83 1015.2
20260508093217 5 85 0.0 0.0 0.00 0.00 0.00 83 1014.9
20260508092714 5 85 0.0 0.0 0.00 0.00 0.00 83 1015.1
20260508092212 5 85 0.0 0.0 0.00 0.00 0.00 84 1015.0
20260508091710 5 85 0.0 0.0 0.00 0.00 0.00 84 1015.0
20260508091207 5 85 0.0 0.0 0.00 0.00 0.00 84 1015.0
20260508090704 5 85 0.0 0.0 0.00 0.00 0.00 84 1014.9
20260508090202 5 85 0.0 0.0 0.00 0.00 0.00 83 1014.9
20260508085657 5 85 0.0 0.0 0.00 0.00 0.00 83 1014.9
20260508085155 5 85 0.0 0.0 0.00 0.00 0.00 83 1014.8
20260508084651 5 85 0.0 0.0 0.00 0.00 0.00 83 1014.9
20260508084148 5 85 0.0 0.0 0.00 0.00 0.00 82 1015.0
20260508083646 6 85 0.0 0.0 0.00 0.00 0.00 81 1014.6
20260508083143 6 75 0.0 0.0 0.00 0.00 0.00 80 1015.1
20260508082632 6 75 0.0 0.0 0.00 0.00 0.00 80 1014.9
20260508082130 6 73 0.0 0.0 0.00 0.00 0.00 80 1014.7
20260508081628 6 68 0.0 0.0 0.00 0.00 0.00 80 1014.4
20260508081124 6 67 0.0 0.0 0.00 0.00 0.00 80 1014.5
20260508080621 6 67 0.0 0.0 0.00 0.00 0.00 80 1014.5
20260508080119 6 66 0.0 0.0 0.00 0.00 0.00 79 1014.6
20260508075615 6 66 0.0 0.0 0.00 0.00 0.00 78 1014.7
20260508075112 6 66 0.0 0.0 0.00 0.00 0.00 78 1014.9
20260508074610 6 67 0.0 0.0 0.00 0.00 0.00 78 1015.0
20260508074107 6 56 0.0 0.0 0.00 0.00 0.00 78 1014.7
20260508073604 6 52 0.0 0.0 0.00 0.00 0.00 79 1014.8
20260508073102 6 51 0.0 0.0 0.00 0.00 0.00 79 1014.9
20260508072557 6 45 0.0 0.0 0.00 0.00 0.00 79 1014.7
20260508072054 6 12 0.0 0.0 0.00 0.00 0.00 80 1015.0
20260508071552 6 12 0.0 0.0 0.00 0.00 0.00 80 1015.0
20260508071050 6 12 0.0 0.0 0.00 0.00 0.00 81 1015.1
20260508070547 6 12 0.0 0.0 0.00 0.00 0.00 81 1015.0
20260508070045 6 12 0.0 0.0 0.00 0.00 0.00 81 1015.2
20260508065543 6 12 0.0 0.0 0.00 0.00 0.00 81 1015.2
20260508065041 6 12 0.0 0.0 0.00 0.00 0.00 81 1015.2
20260508064538 6 12 0.0 0.0 0.00 0.00 0.00 81 1015.2
20260508064036 6 12 0.0 0.0 0.00 0.00 0.00 81 1015.1
20260508063533 6 12 0.0 0.0 0.00 0.00 0.00 81 1015.2
20260508063031 6 12 0.0 0.0 0.00 0.00 0.00 81 1015.3
20260508062528 6 12 0.0 0.0 0.00 0.00 0.00 80 1015.2
20260508062025 6 12 0.0 0.0 0.00 0.00 0.00 82 1015.2
20260508061523 6 12 0.0 0.0 0.00 0.00 0.00 82 1015.4
20260508061019 6 12 0.0 0.0 0.00 0.00 0.00 83 1015.2
20260508060516 6 12 0.0 0.0 0.00 0.00 0.00 82 1015.7
20260508060014 6 12 0.0 0.0 0.00 0.00 0.00 81 1015.7
20260508055509 6 12 0.0 0.0 0.00 0.00 0.00 81 1015.9
20260508055007 6 12 0.0 0.0 0.00 0.00 0.00 80 1015.7
20260508054503 6 12 0.0 0.0 0.00 0.00 0.00 79 1016.0
20260508054000 6 12 0.0 0.0 0.00 0.00 0.00 80 1015.8
20260508053456 6 12 0.0 0.0 0.00 0.00 0.00 80 1015.8
20260508052954 6 12 0.0 0.0 0.00 0.00 0.00 82 1015.5
20260508052452 6 12 0.0 0.0 0.00 0.00 0.00 81 1015.7
20260508051948 6 12 0.0 0.0 0.00 0.00 0.00 79 1015.7
20260508051443 6 12 0.0 0.0 0.00 0.00 0.00 80 1015.4
20260508050940 6 12 0.0 0.0 0.00 0.00 0.00 80 1015.7
20260508050436 6 12 0.0 0.0 0.00 0.00 0.00 80 1015.4
20260508045932 7 12 0.0 0.0 0.00 0.00 0.00 80 1015.7
20260508045430 6 12 0.0 0.0 0.00 0.00 0.00 77 1015.7
20260508044928 6 12 0.0 0.0 0.00 0.00 0.00 78 1015.8
20260508044425 6 12 0.0 0.0 0.00 0.00 0.00 78 1015.7
20260508043920 7 12 0.0 0.0 0.00 0.00 0.00 79 1015.5
20260508043418 7 12 0.0 0.0 0.00 0.00 0.00 77 1015.8
20260508042914 7 12 0.0 0.0 0.00 0.00 0.00 77 1015.4
20260508042412 7 12 0.0 0.0 0.00 0.00 0.00 77 1015.5
20260508041909 7 12 0.0 0.0 0.00 0.00 0.00 72 1015.9
20260508041405 7 12 0.0 0.0 0.00 0.00 0.00 75 1015.7
20260508040901 7 12 0.0 0.0 0.00 0.00 0.00 73 1015.5
20260508040359 7 12 0.0 0.0 0.00 0.00 0.00 73 1015.5
20260508035857 7 12 0.0 0.0 0.00 0.00 0.00 72 1015.3
20260508035354 7 12 0.0 0.0 0.00 0.00 0.00 72 1015.3
20260508034850 7 12 0.0 0.0 0.00 0.00 0.00 74 1015.2
20260508034348 7 12 0.0 0.0 0.00 0.00 0.00 75 1015.5
20260508033844 7 12 0.0 0.0 0.00 0.00 0.00 74 1015.8
20260508033343 7 12 0.0 0.0 0.00 0.00 0.00 72 1015.5
20260508032840 7 12 0.0 0.0 0.00 0.00 0.00 75 1015.7
20260508032337 7 12 0.0 0.0 0.00 0.00 0.00 75 1015.8
20260508031834 7 12 0.0 0.0 0.00 0.00 0.00 70 1015.4
20260508031330 7 12 0.0 0.0 0.00 0.00 0.00 70 1015.7
20260508030827 8 12 0.0 0.0 0.00 0.00 0.00 73 1015.5
20260508030324 8 12 0.0 0.0 0.00 0.00 0.00 74 1015.4
20260508025821 8 12 0.0 0.0 0.00 0.00 0.00 72 1015.7
20260508025318 8 12 0.0 0.0 0.00 0.00 0.00 72 1015.4
20260508024815 8 12 0.0 0.0 0.00 0.00 0.00 69 1015.4
20260508024311 8 12 0.0 0.0 0.00 0.00 0.00 66 1015.3
20260508023808 8 12 0.0 0.0 0.00 0.00 0.00 66 1015.7
20260508023305 9 12 0.0 0.0 0.00 0.00 0.00 74 1015.4
20260508022801 8 12 0.0 0.0 0.00 0.00 0.00 65 1015.7
20260508022257 9 12 0.0 0.0 0.00 0.00 0.00 69 1015.3
20260508021755 9 12 0.0 0.0 0.00 0.00 0.00 73 1015.5
20260508021250 9 12 0.0 0.0 0.00 0.00 0.00 60 1015.5
20260508020747 9 12 0.0 0.0 0.00 0.00 0.00 61 1015.3
20260508020245 9 12 0.0 0.0 0.00 0.00 0.00 62 1015.3
20260508015741 9 12 0.0 0.0 0.00 0.00 0.00 67 1015.2
20260508015238 9 12 0.0 0.0 0.00 0.00 0.00 65 1015.2
20260508014735 9 12 0.0 0.0 0.00 0.00 0.00 62 1015.2
20260508014232 9 12 0.0 0.0 0.00 0.00 0.00 62 1015.1
20260508013728 9 12 0.0 0.0 0.00 0.00 0.00 65 1015.1
20260508013224 10 12 0.0 0.0 0.00 0.00 0.00 70 1014.9
20260508012722 10 12 0.0 0.0 0.00 0.00 0.00 65 1014.9
20260508012219 10 12 0.0 0.0 0.00 0.00 0.00 66 1014.9
20260508011717 10 12 0.0 0.0 0.00 0.00 0.00 61 1015.0
20260508011214 10 12 0.0 0.0 0.00 0.00 0.00 61 1014.9
20260508010711 10 12 0.0 0.0 0.00 0.00 0.00 64 1014.9
20260508010208 10 12 0.0 0.0 0.00 0.00 0.00 60 1014.9
20260508005705 11 12 0.0 0.0 0.00 0.00 0.00 62 1014.8
20260508005156 11 12 0.0 0.0 0.00 0.00 0.00 63 1014.8
20260508004652 11 11 0.0 0.0 0.00 0.00 0.00 60 1014.6
20260508004148 11 12 0.0 0.0 0.00 0.00 0.00 61 1014.9
20260508003645 11 12 0.0 0.0 0.00 0.00 0.00 60 1014.6
20260508003143 12 12 0.0 0.0 0.00 0.00 0.00 59 1014.8